GW2897 Weather Reports


Display with metric or nautical units.
time (UTC)temp
F
wind
direction
speed
MPH
gust
MPH
rain 1hr
in
rain 24hr
in
rain mn
in
humidity
%
barometer
mb
20260510190025 82 282 3.0 10.0 0.00 0.00 0.00 52 1014.9
20260510185405 82 297 4.0 8.0 0.00 0.00 0.00 51 1015.0
20260510184504 82 284 3.0 10.0 0.00 0.00 0.00 51 1015.0
20260510183604 83 270 2.0 10.0 0.00 0.00 0.00 52 1015.1
20260510182704 82 289 1.0 5.0 0.00 0.00 0.00 52 1015.0
20260510181804 81 254 2.0 6.0 0.00 0.00 0.00 52 1015.1
20260510180904 81 285 2.0 5.0 0.00 0.00 0.00 53 1015.2
20260510180005 81 283 2.0 5.0 0.00 0.00 0.00 54 1015.2
20260510175404 81 305 3.0 6.0 0.00 0.00 0.00 56 1015.3
20260510174504 81 300 2.0 5.0 0.00 0.00 0.00 52 1015.4
20260510173625 80 287 3.0 7.0 0.00 0.00 0.00 54 1015.4
20260510172735 81 301 2.0 9.0 0.00 0.00 0.00 53 1015.6
20260510171826 81 182 2.0 7.0 0.00 0.00 0.00 53 1015.7
20260510170905 80 293 4.0 12.0 0.00 0.00 0.00 53 1015.8
20260510170007 81 298 3.0 8.0 0.00 0.00 0.00 53 1015.9
20260510165404 80 289 3.0 8.0 0.00 0.00 0.00 55 1015.9
20260510164526 80 281 3.0 8.0 0.00 0.00 0.00 53 1016.0
20260510163626 80 272 2.0 8.0 0.00 0.00 0.00 53 1016.0
20260510162743 80 247 1.0 4.0 0.00 0.00 0.00 56 1016.1
20260510161804 80 336 0.0 3.0 0.00 0.00 0.00 56 1016.1
20260510160904 80 168 0.0 2.0 0.00 0.00 0.00 55 1016.1
20260510160006 79 48 2.0 5.0 0.00 0.00 0.00 54 1016.1
20260510155404 80 105 2.0 7.0 0.00 0.00 0.00 58 1016.0
20260510154504 80 146 1.0 3.0 0.00 0.00 0.00 56 1016.1
20260510153604 79 304 1.0 4.0 0.00 0.00 0.00 56 1016.2
20260510152704 78 214 1.0 3.0 0.00 0.00 0.00 56 1016.1
20260510151804 78 99 1.0 4.0 0.00 0.00 0.00 56 1016.0
20260510150904 78 99 1.0 3.0 0.00 0.00 0.00 58 1016.0
20260510150025 78 333 0.0 2.0 0.00 0.00 0.00 65 1016.0
20260510145405 77 323 1.0 5.0 0.00 0.00 0.00 66 1015.9
20260510144525 75 296 2.0 4.0 0.00 0.00 0.00 70 1015.9
20260510143604 75 300 2.0 4.0 0.00 0.00 0.00 70 1015.9
20260510142704 74 286 2.0 4.0 0.00 0.00 0.00 73 1015.8
20260510141804 73 287 1.0 3.0 0.00 0.00 0.00 72 1015.8
20260510140919 72 306 1.0 3.0 0.00 0.00 0.00 78 1015.8
20260510140004 71 335 1.0 3.0 0.00 0.00 0.00 81 1015.7
20260510135404 70 315 1.0 3.0 0.00 0.00 0.00 80 1015.8
20260510134505 69 308 1.0 4.0 0.00 0.00 0.00 81 1015.8
20260510133610 69 302 1.0 3.0 0.00 0.00 0.00 84 1015.7
20260510132726 68 306 1.0 4.0 0.00 0.00 0.00 86 1015.6
20260510131804 67 332 0.0 2.0 0.00 0.00 0.00 90 1015.7
20260510130905 66 322 0.0 2.0 0.00 0.00 0.00 90 1015.9
20260510130004 65 327 0.0 2.0 0.00 0.00 0.00 92 1015.9
20260510125403 64 318 0.0 2.0 0.00 0.00 0.00 93 1015.6
20260510124504 64 306 0.0 2.0 0.00 0.00 0.00 94 1015.6
20260510123604 63 227 0.0 1.0 0.00 0.00 0.00 96 1015.4
20260510122704 62 307 0.0 3.0 0.00 0.00 0.00 96 1015.4
20260510121804 62 307 2.0 4.0 0.00 0.00 0.00 97 1015.4
20260510120904 61 314 1.0 3.0 0.00 0.00 0.00 98 1015.2
20260510120004 60 275 0.0 2.0 0.00 0.00 0.00 98 1015.1
20260510115425 60 334 0.0 1.0 0.00 0.00 0.00 98 1015.1
20260510114504 59 113 0.0 1.0 0.00 0.00 0.00 97 1014.9
20260510113604 59 113 0.0 1.0 0.00 0.00 0.00 97 1014.9
20260510112725 59 113 0.0 1.0 0.00 0.00 0.00 97 1014.8
20260510111825 59 117 0.0 1.0 0.00 0.00 0.00 97 1014.7
20260510110905 59 182 0.0 1.0 0.00 0.00 0.00 97 1014.5
20260510110005 59 257 0.0 1.0 0.00 0.00 0.00 97 1014.3
20260510105405 58 287 0.0 1.0 0.00 0.00 0.00 97 1014.1
20260510104504 58 281 0.0 1.0 0.00 0.00 0.00 97 1014.0
20260510103603 58 267 0.0 1.0 0.00 0.00 0.00 96 1014.0
20260510102704 58 267 0.0 1.0 0.00 0.00 0.00 96 1013.7
20260510101838 58 0 0.0 0.0 0.00 0.00 0.00 96 1013.7
20260510100905 58 0 0.0 0.0 0.00 0.00 0.00 96 1013.7
20260510100005 59 236 0.0 1.0 0.00 0.00 0.00 96 1013.6
20260510095405 59 121 0.0 1.0 0.00 0.00 0.00 96 1013.5
20260510094505 59 122 0.0 1.0 0.00 0.00 0.00 96 1013.6
20260510093604 59 121 0.0 1.0 0.00 0.00 0.00 95 1013.5
20260510092725 59 121 0.0 1.0 0.00 0.00 0.00 95 1013.3
20260510091805 59 0 0.0 0.0 0.00 0.00 0.00 95 1013.3
20260510090904 60 122 0.0 1.0 0.00 0.00 0.00 95 1013.3
20260510090025 60 122 0.0 1.0 0.00 0.00 0.00 95 1013.2
20260510085404 60 122 0.0 1.0 0.00 0.00 0.00 95 1013.0
20260510084504 61 0 0.0 0.0 0.00 0.00 0.00 94 1012.8
20260510083604 61 120 0.0 1.0 0.00 0.00 0.00 94 1012.8
20260510082710 62 150 0.0 1.0 0.00 0.00 0.00 94 1012.7
20260510081804 62 264 0.0 2.0 0.00 0.00 0.00 94 1012.5
20260510080904 62 252 1.0 2.0 0.00 0.00 0.00 94 1012.4
20260510080004 62 227 0.0 3.0 0.00 0.00 0.00 94 1012.5
20260510075404 62 211 0.0 2.0 0.00 0.00 0.00 94 1012.3
20260510074504 62 206 0.0 2.0 0.00 0.00 0.00 94 1012.3
20260510073604 62 262 0.0 1.0 0.00 0.00 0.00 94 1012.2
20260510072721 62 277 0.0 1.0 0.00 0.00 0.00 94 1012.1
20260510071825 62 241 0.0 1.0 0.00 0.00 0.00 94 1012.1
20260510070904 62 240 0.0 1.0 0.00 0.00 0.00 93 1012.2
20260510070027 62 0 0.0 0.0 0.00 0.00 0.00 93 1012.2
20260510065404 63 219 0.0 1.0 0.00 0.00 0.00 93 1012.3
20260510064503 63 318 0.0 2.0 0.00 0.00 0.00 93 1012.3
20260510063627 63 295 0.0 2.0 0.00 0.00 0.00 93 1012.3
20260510062704 63 241 0.0 1.0 0.00 0.00 0.00 93 1012.3
20260510061804 63 259 0.0 2.0 0.00 0.00 0.00 93 1012.3
20260510060904 63 273 0.0 1.0 0.00 0.00 0.00 93 1012.3
20260510060009 63 294 1.0 4.0 0.00 0.00 0.00 93 1012.3
20260510055404 63 297 1.0 4.0 0.00 0.00 0.00 93 1012.4
20260510054504 63 231 0.0 1.0 0.00 0.00 0.00 93 1012.5
20260510053634 63 0 0.0 0.0 0.00 0.00 0.00 93 1012.7
20260510052704 63 262 0.0 1.0 0.00 0.00 0.00 93 1012.7
20260510051803 63 281 0.0 2.0 0.00 0.00 0.00 93 1012.7
20260510050904 63 286 0.0 2.0 0.00 0.00 0.00 93 1012.7
20260510050004 63 280 0.0 2.0 0.00 0.00 0.00 93 1012.8
20260510045425 63 275 0.0 1.0 0.00 0.00 0.00 93 1012.8
20260510044525 63 271 0.0 1.0 0.00 0.00 0.00 93 1012.9
20260510043627 63 259 0.0 2.0 0.00 0.00 0.00 93 1012.9
20260510042704 64 280 0.0 4.0 0.00 0.00 0.00 92 1012.8
20260510041804 64 272 0.0 4.0 0.00 0.00 0.00 92 1012.7
20260510040905 64 268 1.0 2.0 0.00 0.00 0.00 93 1012.6
20260510040004 64 264 1.0 2.0 0.00 0.00 0.00 93 1012.5
20260510035404 64 271 0.0 1.0 0.00 0.00 0.00 92 1012.5
20260510034504 64 278 0.0 1.0 0.00 0.00 0.00 92 1012.7
20260510033604 64 272 1.0 3.0 0.00 0.00 0.00 92 1012.7
20260510032704 64 269 1.0 3.0 0.00 0.00 0.00 93 1012.7
20260510031804 63 282 0.0 2.0 0.00 0.00 0.00 94 1012.6
20260510030907 63 270 0.0 1.0 0.00 0.00 0.00 94 1012.5
20260510030005 63 250 0.0 1.0 0.00 0.00 0.00 94 1012.6
20260510025425 63 277 0.0 1.0 0.00 0.00 0.00 94 1012.7
20260510024504 63 0 0.0 0.0 0.00 0.00 0.00 93 1012.7
20260510023604 63 0 0.0 0.0 0.00 0.00 0.00 93 1012.7
20260510022703 64 0 0.0 0.0 0.00 0.00 0.00 93 1012.5
20260510021804 64 211 0.0 1.0 0.00 0.00 0.00 92 1012.5
20260510020904 64 282 0.0 1.0 0.00 0.00 0.00 92 1012.5
20260510020004 65 285 0.0 1.0 0.00 0.00 0.00 92 1012.5
20260510015403 65 274 0.0 1.0 0.00 0.00 0.00 92 1012.3
20260510014523 65 277 0.0 2.0 0.00 0.00 0.00 91 1012.2
20260510013604 65 275 0.0 2.0 0.00 0.00 0.00 91 1012.2
20260510012705 66 253 0.0 2.0 0.00 0.00 0.00 90 1012.1
20260510011805 66 286 0.0 2.0 0.00 0.00 0.00 90 1012.1
20260510010925 66 284 0.0 2.0 0.00 0.00 0.00 90 1012.0
20260510010004 66 290 0.0 2.0 0.00 0.00 0.00 90 1011.9
20260510005424 66 268 0.0 2.0 0.00 0.00 0.00 89 1011.9
20260510004504 67 265 0.0 2.0 0.00 0.00 0.00 89 1011.8
20260510003603 67 274 0.0 2.0 0.00 0.00 0.00 88 1011.7
20260510002715 67 258 1.0 3.0 0.00 0.00 0.00 88 1011.4
20260510001825 67 253 1.0 5.0 0.00 0.00 0.00 88 1011.2
20260510000904 68 241 1.0 3.0 0.00 0.00 0.00 87 1011.1
20260510000012 68 254 0.0 1.0 0.00 0.00 0.00 87 1011.1
20260509235404 68 0 0.0 0.0 0.00 0.00 0.00 87 1010.9
20260509234503 68 257 0.0 1.0 0.00 0.00 0.00 86 1010.9
20260509233604 69 299 0.0 1.0 0.00 0.00 0.00 86 1010.8
20260509232703 69 260 1.0 7.0 0.00 0.00 0.00 85 1010.7
20260509231805 69 256 1.0 7.0 0.00 0.00 0.00 85 1010.6
20260509230903 70 272 1.0 4.0 0.00 0.00 0.00 84 1010.6
20260509230010 70 274 1.0 4.0 0.00 0.00 0.00 84 1010.6
20260509225404 70 269 2.0 6.0 0.00 0.00 0.00 84 1010.6
20260509224504 70 271 2.0 6.0 0.00 0.00 0.00 83 1010.5
20260509223646 70 260 2.0 6.0 0.00 0.00 0.00 83 1010.5
20260509222725 71 274 2.0 10.0 0.00 0.00 0.00 83 1010.2
20260509221825 71 260 4.0 8.0 0.00 0.00 0.00 82 1010.3
20260509220914 71 261 2.0 7.0 0.00 0.00 0.00 82 1010.3
20260509220004 72 266 1.0 3.0 0.00 0.00 0.00 82 1010.2
20260509215403 72 264 1.0 3.0 0.00 0.00 0.00 82 1010.3
20260509214525 71 265 2.0 6.0 0.00 0.00 0.00 82 1010.3
20260509213603 71 255 3.0 10.0 0.00 0.00 0.00 82 1010.1
20260509212705 71 266 2.0 7.0 0.00 0.00 0.00 82 1010.1
20260509211804 71 278 2.0 7.0 0.00 0.00 0.00 81 1010.2
20260509210903 71 259 3.0 6.0 0.00 0.00 0.00 81 1010.3
20260509210025 71 250 2.0 6.0 0.00 0.00 0.00 82 1010.3
20260509205404 71 260 3.0 8.0 0.00 0.00 0.00 82 1010.3
20260509204503 71 279 3.0 8.0 0.00 0.00 0.00 81 1010.4
20260509203619 71 257 3.0 8.0 0.00 0.00 0.00 81 1010.4
20260509202704 71 263 4.0 11.0 0.00 0.00 0.00 82 1010.4
20260509201804 72 245 3.0 8.0 0.00 0.00 0.00 80 1010.7
20260509200924 71 257 4.0 10.0 0.00 0.00 0.00 81 1010.8
20260509200004 71 268 5.0 13.0 0.00 0.00 0.00 81 1011.0
20260509195403 71 272 4.0 13.0 0.00 0.00 0.00 81 1010.9
20260509194524 71 276 3.0 9.0 0.00 0.00 0.00 81 1010.9
20260509193605 71 268 3.0 11.0 0.00 0.00 0.00 80 1011.0
20260509192705 72 270 2.0 6.0 0.00 0.00 0.00 81 1011.1
20260509191803 71 255 2.0 7.0 0.00 0.00 0.00 81 1011.3
20260509190916 71 275 2.0 6.0 0.00 0.00 0.00 82 1011.2